Regional Weather Roundup
Issued by NWS Cleveland, OH

Home | Current Version | Previous Version | Graphics & Text | Print | Product List | Glossary On
Versions: 1 2 3 4 5 6 7 8 9 10 11 12 13 14 15 16 17 18 19 20 21 22 23 24 25 26 27 28 29 30 31 32 33 34 35 36 37 38 39 40 41 42 43 44 45 46 47 48 49 50
000
ASUS41 KCLE 061400
RWRCLE
OHIO REGIONAL WEATHER ROUNDUP
NATIONAL WEATHER SERVICE WILMINGTON, OH
1000 AM EDT WED MAY 06 2015

NOTE: "FAIR" INDICATES FEW OR NO CLOUDS BELOW 12,000 FEET WITH NO
SIGNIFICANT WEATHER AND/OR OBSTRUCTIONS TO VISIBILITY.

OHZ001>008-015>018-024>027-034-035-043-044-061500-
   NORTHWEST OHIO

CITY           SKY/WX    TMP DP  RH WIND       PRES   REMARKS
DEFIANCE       FOG       55  54  96 E5        30.25S VSB 1/2
FINDLAY        CLOUDY    57  54  89 E3        30.23S FOG
TOLEDO EXPRESS CLOUDY    53  53 100 NE6       30.25S FOG
TOLEDO EXEC    FOG       53  51  93 NE8       30.26S VSB 1
LIMA           CLOUDY    57  56  96 CALM      30.23S FOG
$$

OHZ009>014-019>023-028>033-038-089-061500-
   NORTHEAST OHIO

CITY           SKY/WX    TMP DP  RH WIND       PRES   REMARKS
CLE-HOPKINS    FOG       56  55  97 NE5       30.26F VSB 1/2
CLE-LAKEFRONT  FOG       52  50  93 NE7       30.24F VSB 1/4
CUY CO. ARPT   CLOUDY    59  57  94 NE6       30.25S FOG
LORAIN-ELYRIA  CLOUDY    56  54  93 E3        30.24F FOG
ASHTABULA      CLOUDY    58  57  97 NE3       30.25F FOG
AKRON-CANTON   PTSUNNY   64  60  87 S6        30.23F FOG
WOOSTER        CLOUDY    61  61 100 CALM      30.24S FOG
MANSFIELD      MOSUNNY   64  59  83 CALM      30.23F HAZE
YOUNGSTOWN     CLOUDY    68  57  68 CALM      30.24R
$$

OHZ042-051>053-060>062-070>072-077>081-061500-
  SOUTHWEST OHIO

CITY           SKY/WX    TMP DP  RH WIND       PRES   REMARKS
CINC-COVINGTON MOSUNNY   76  58  53 CALM      30.23R
CINC-LUNKEN    SUNNY     69  62  78 CALM      30.22F
HAMILTON       SUNNY     73  58  59 CALM      30.23S
DAYTON         NOT AVBL
WRIGHT-PAT AFB NOT AVBL
DAYTON GENERAL SUNNY     74  55  51 W5        30.22S
WILMINGTON     SUNNY     75  56  51 CALM      30.23S
$$

OHZ036-037-039>041-045>050-054>059-063>069-073>076-082>088-061500-
  CENTRAL AND SOUTHEAST OHIO

CITY           SKY/WX    TMP DP  RH WIND       PRES   REMARKS
COLUMBUS       MOSUNNY   71  58  63 CALM      30.22S
OSU AIRPORT    SUNNY     70  57  63 CALM      30.22F
BOLTON FIELD   NOT AVBL
RICKENBACK AFB NOT AVBL
NEWARK         SUNNY     67  61  81 CALM      30.22F
MARION         PTSUNNY   63  60  90 CALM      30.23S FOG
LANCASTER      SUNNY     75  58  55 CALM      30.23S
ZANESVILLE     SUNNY     66  59  78 CALM      30.23S
NEW PHILLY     CLOUDY    64  59  83 CALM      30.24S HAZE
$$



USA.gov is the U.S. government's official web portal to all federal, state and local government web resources and services.